Location: A�t Bou Chrif
(32.7193°N, 5.2385°W)
Time: 04:21:39
(UTC+00:00)

Iridium 2 - Pass Details

Date: 08 August 2020
Orbit: 503 x 516 km, 85.5° (Epoch: 20 September)

Event Time Altitude Azimuth Distance (km) Brightness Sun altitude
Rises 19:30:08 0° 2° (N) 2,615 7.6 -4.3°
Reaches altitude 10° 19:32:17 10° 7° (N) 1,724 6.6 -4.7°
Maximum altitude 19:35:59 54° 86° (E) 617 3.8 -5.4°
Drops below altitude 10° 19:39:38 10° 164° (SSE) 1,706 6.0 -6.1°
Sets 19:41:46 0° 169° (S) 2,584 6.9 -6.5°
